{"data":{"norad_id":63550,"intl_designator":"2025-075C","name":"STARLINK-11667 [DTC]","alt_names":[],"object_type":"PAYLOAD","status":"ACTIVE","operator":null,"country":"US","launch_date":"2025-04-13","launch_site_code":"AFETR","launch_vehicle":null,"mission":null,"orbit_class":"UNKNOWN","rcs_meters":null,"size_class":null,"mass_kg":null,"dimensions":null,"purposes":["comms"],"wikipedia_slug":null,"has_3d_model":false,"image_url":null,"decayed_at":null,"tle_current":{"epoch":"2026-09-20T13:22:47.733888Z","epoch_age_seconds":150591,"freshness":"FRESH","line1":"1 63550U 25075C   26263.55749692  .00129442  00000+0  99679-3 0  9998","line2":"2 63550  43.0001  59.4417 0001752 290.0131  70.0548 15.70836006 83898","mean_motion":15.70836006,"eccentricity":0.0001752,"inclination_deg":43.0001,"raan_deg":59.4417,"arg_perigee_deg":290.0131,"mean_anomaly_deg":70.0548,"bstar":0.00099679,"rev_number":8389,"period_min":91.670931561267,"perigee_km":355.32656765504,"apogee_km":357.68638672945,"semimajor_km":6734.6434771922,"source":"CELESTRAK","updated_at":"2026-09-21T09:00:35.019437Z"}}}